Time,TemperatureF,DewpointF,PressureIn,WindDirection,WindDirectionDegrees,WindSpeedMPH,WindSpeedGustMPH,Humidity,HourlyPrecipIn,Conditions,Clouds,dailyrainin,SoftwareType,DateUTC
2013-10-19 00:05:00,53.1,52.0,29.95,ESE,115,0.0,0.0,97,0.00,,,0.00,weatherlink.com 1.10,2013-10-19 04:05:00,
2013-10-19 00:20:00,53.8,53.0,29.94,ESE,115,0.0,0.0,97,0.00,,,0.00,weatherlink.com 1.10,2013-10-19 04:20:00,
2013-10-19 00:35:00,54.1,54.0,29.95,ESE,115,0.0,0.0,98,0.00,,,0.00,weatherlink.com 1.10,2013-10-19 04:35:00,
2013-10-19 00:50:00,54.4,54.0,29.95,ESE,115,0.0,0.0,97,0.00,,,0.00,weatherlink.com 1.10,2013-10-19 04:50:00,
2013-10-19 01:05:00,54.4,54.0,29.94,ESE,115,0.0,0.0,97,0.00,,,0.00,weatherlink.com 1.10,2013-10-19 05:05:00,
2013-10-19 01:20:00,54.6,54.0,29.94,ESE,115,0.0,0.0,97,0.00,,,0.00,weatherlink.com 1.10,2013-10-19 05:20:00,
2013-10-19 01:35:00,54.6,54.0,29.94,ESE,115,0.0,0.0,97,0.00,,,0.00,weatherlink.com 1.10,2013-10-19 05:35:00,
2013-10-19 01:50:00,54.8,54.0,29.94,ESE,115,0.0,0.0,97,0.00,,,0.00,weatherlink.com 1.10,2013-10-19 05:50:00,
2013-10-19 02:05:00,55.2,55.0,29.93,ESE,115,0.0,0.0,98,0.00,,,0.00,weatherlink.com 1.10,2013-10-19 06:05:00,
2013-10-19 02:20:00,55.6,55.0,29.92,ESE,115,0.0,0.0,97,0.00,,,0.00,weatherlink.com 1.10,2013-10-19 06:20:00,
2013-10-19 02:35:00,55.9,55.0,29.93,ESE,115,0.0,0.0,98,0.00,,,0.00,weatherlink.com 1.10,2013-10-19 06:35:00,
2013-10-19 02:50:00,56.2,55.0,29.93,ESE,115,0.0,0.0,97,0.00,,,0.00,weatherlink.com 1.10,2013-10-19 06:50:00,
2013-10-19 03:05:00,56.2,55.0,29.92,ESE,115,0.0,0.0,97,0.00,,,0.00,weatherlink.com 1.10,2013-10-19 07:05:00,
2013-10-19 03:20:00,56.4,56.0,29.91,ESE,115,0.0,0.0,97,0.00,,,0.00,weatherlink.com 1.10,2013-10-19 07:20:00,
2013-10-19 03:35:00,56.4,56.0,29.90,ESE,115,0.0,0.0,97,0.00,,,0.00,weatherlink.com 1.10,2013-10-19 07:35:00,
2013-10-19 03:50:00,56.4,56.0,29.91,ESE,115,0.0,0.0,97,0.00,,,0.00,weatherlink.com 1.10,2013-10-19 07:50:00,
2013-10-19 04:05:00,56.6,56.0,29.91,ESE,115,0.0,0.0,97,0.00,,,0.00,weatherlink.com 1.10,2013-10-19 08:05:00,
2013-10-19 04:20:00,56.7,56.0,29.91,ESE,115,0.0,0.0,97,0.00,,,0.00,weatherlink.com 1.10,2013-10-19 08:20:00,
2013-10-19 04:35:00,56.9,56.0,29.89,ESE,115,0.0,0.0,97,0.00,,,0.00,weatherlink.com 1.10,2013-10-19 08:35:00,
2013-10-19 04:50:00,57.3,57.0,29.90,ESE,115,0.0,0.0,97,0.00,,,0.00,weatherlink.com 1.10,2013-10-19 08:50:00,
2013-10-19 05:05:00,57.4,57.0,29.90,ESE,115,0.0,0.0,97,0.00,,,0.00,weatherlink.com 1.10,2013-10-19 09:05:00,
2013-10-19 05:20:00,57.6,57.0,29.91,ESE,115,0.0,0.0,97,0.00,,,0.00,weatherlink.com 1.10,2013-10-19 09:20:00,
2013-10-19 05:35:00,57.6,57.0,29.90,ESE,115,0.0,0.0,97,0.00,,,0.00,weatherlink.com 1.10,2013-10-19 09:35:00,
2013-10-19 05:50:00,57.5,57.0,29.89,ESE,115,0.0,0.0,97,0.00,,,0.00,weatherlink.com 1.10,2013-10-19 09:50:00,
2013-10-19 06:05:00,57.5,57.0,29.89,ESE,115,0.0,0.0,97,0.00,,,0.00,weatherlink.com 1.10,2013-10-19 10:05:00,
2013-10-19 06:20:00,57.7,57.0,29.89,SE,140,0.0,0.0,98,0.00,,,0.00,weatherlink.com 1.10,2013-10-19 10:20:00,
2013-10-19 06:35:00,57.8,57.0,29.89,SE,140,0.0,0.0,98,0.00,,,0.00,weatherlink.com 1.10,2013-10-19 10:35:00,
2013-10-19 06:50:00,57.7,57.0,29.89,SE,140,0.0,0.0,98,0.00,,,0.00,weatherlink.com 1.10,2013-10-19 10:50:00,
2013-10-19 07:05:00,57.8,57.0,29.90,SE,140,0.0,0.0,98,0.00,,,0.00,weatherlink.com 1.10,2013-10-19 11:05:00,
2013-10-19 07:20:00,57.8,57.0,29.90,SE,140,0.0,0.0,98,0.00,,,0.00,weatherlink.com 1.10,2013-10-19 11:20:00,
2013-10-19 07:35:00,57.8,57.0,29.89,SE,140,0.0,0.0,98,0.00,,,0.00,weatherlink.com 1.10,2013-10-19 11:35:00,
2013-10-19 07:50:00,57.8,57.0,29.89,SE,140,0.0,0.0,98,0.00,,,0.00,weatherlink.com 1.10,2013-10-19 11:50:00,
2013-10-19 08:05:00,57.8,57.0,29.89,SE,140,0.0,0.0,98,0.00,,,0.00,weatherlink.com 1.10,2013-10-19 12:05:00,
2013-10-19 08:20:00,57.8,57.0,29.89,SE,140,0.0,0.0,98,0.00,,,0.00,weatherlink.com 1.10,2013-10-19 12:20:00,
2013-10-19 08:35:00,57.7,57.0,29.89,South,173,0.0,0.0,98,0.00,,,0.00,weatherlink.com 1.10,2013-10-19 12:35:00,
2013-10-19 08:50:00,57.8,57.0,29.90,South,173,0.0,0.0,98,0.00,,,0.00,weatherlink.com 1.10,2013-10-19 12:50:00,
2013-10-19 09:05:00,57.9,57.0,29.90,South,173,0.0,0.0,98,0.00,,,0.00,weatherlink.com 1.10,2013-10-19 13:05:00,
2013-10-19 09:20:00,58.0,58.0,29.90,South,173,0.0,0.0,98,0.00,,,0.00,weatherlink.com 1.10,2013-10-19 13:20:00,
2013-10-19 09:35:00,58.1,58.0,29.90,South,173,0.0,0.0,98,0.00,,,0.00,weatherlink.com 1.10,2013-10-19 13:35:00,
2013-10-19 09:50:00,58.4,58.0,29.90,SSW,211,0.0,0.0,98,0.00,,,0.00,weatherlink.com 1.10,2013-10-19 13:50:00,
2013-10-19 10:05:00,58.6,58.0,29.89,SSE,154,0.0,0.0,98,0.00,,,0.00,weatherlink.com 1.10,2013-10-19 14:05:00,
2013-10-19 10:20:00,58.7,58.0,29.90,SSE,154,0.0,0.0,98,0.00,,,0.00,weatherlink.com 1.10,2013-10-19 14:20:00,
2013-10-19 10:35:00,59.1,59.0,29.90,SSE,154,0.0,0.0,98,0.00,,,0.00,weatherlink.com 1.10,2013-10-19 14:35:00,
2013-10-19 10:50:00,59.3,59.0,29.90,SSW,204,0.0,0.0,97,0.00,,,0.00,weatherlink.com 1.10,2013-10-19 14:50:00,
2013-10-19 11:05:00,59.5,58.0,29.90,SW,215,0.0,0.0,96,0.00,,,0.00,weatherlink.com 1.10,2013-10-19 15:05:00,
2013-10-19 11:20:00,59.9,59.0,29.90,SSW,202,0.0,0.0,96,0.00,,,0.00,weatherlink.com 1.10,2013-10-19 15:20:00,
2013-10-19 11:35:00,60.4,59.0,29.88,South,182,0.0,0.0,96,0.00,,,0.00,weatherlink.com 1.10,2013-10-19 15:35:00,
2013-10-19 11:50:00,60.5,59.0,29.89,SW,221,0.0,0.0,94,0.00,,,0.00,weatherlink.com 1.10,2013-10-19 15:50:00,
2013-10-19 12:05:00,60.8,59.0,29.89,SW,214,0.0,0.0,93,0.00,,,0.00,weatherlink.com 1.10,2013-10-19 16:05:00,
2013-10-19 12:20:00,61.1,59.0,29.89,SSW,196,0.0,0.0,93,0.00,,,0.00,weatherlink.com 1.10,2013-10-19 16:20:00,
2013-10-19 12:35:00,61.6,59.0,29.88,WSW,238,0.0,0.0,92,0.00,,,0.00,weatherlink.com 1.10,2013-10-19 16:35:00,
2013-10-19 12:50:00,61.8,59.0,29.86,WSW,243,0.0,0.0,90,0.00,,,0.00,weatherlink.com 1.10,2013-10-19 16:50:00,
2013-10-19 13:05:00,62.1,59.0,29.86,WSW,249,0.0,0.0,89,0.00,,,0.00,weatherlink.com 1.10,2013-10-19 17:05:00,
2013-10-19 13:20:00,62.2,59.0,29.86,SW,230,0.0,0.0,88,0.00,,,0.00,weatherlink.com 1.10,2013-10-19 17:20:00,
2013-10-19 13:35:00,62.2,59.0,29.85,SSW,202,0.0,0.0,89,0.00,,,0.00,weatherlink.com 1.10,2013-10-19 17:35:00,
2013-10-19 13:50:00,62.2,59.0,29.82,SSW,207,0.0,0.0,88,0.00,,,0.00,weatherlink.com 1.10,2013-10-19 17:50:00,
2013-10-19 14:05:00,62.7,59.0,29.81,South,181,0.0,0.0,87,0.00,,,0.00,weatherlink.com 1.10,2013-10-19 18:05:00,
2013-10-19 14:20:00,62.8,58.0,29.84,SW,227,0.0,0.0,85,0.00,,,0.00,weatherlink.com 1.10,2013-10-19 18:20:00,
2013-10-19 14:35:00,62.4,58.0,29.83,South,180,0.0,0.0,86,0.00,,,0.00,weatherlink.com 1.10,2013-10-19 18:35:00,
2013-10-19 14:50:00,62.2,58.0,29.84,North,9,0.0,0.0,85,0.00,,,0.00,weatherlink.com 1.10,2013-10-19 18:50:00,
2013-10-19 15:05:00,62.4,58.0,29.82,SW,224,0.0,0.0,85,0.00,,,0.00,weatherlink.com 1.10,2013-10-19 19:05:00,
2013-10-19 15:20:00,62.3,56.0,29.84,SSW,198,0.0,0.0,81,0.00,,,0.00,weatherlink.com 1.10,2013-10-19 19:20:00,
2013-10-19 15:35:00,61.9,56.0,29.85,SW,225,0.0,0.0,80,0.00,,,0.00,weatherlink.com 1.10,2013-10-19 19:35:00,
2013-10-19 15:50:00,61.4,56.0,29.84,South,172,0.0,0.0,83,0.00,,,0.00,weatherlink.com 1.10,2013-10-19 19:50:00,
2013-10-19 16:05:00,61.1,56.0,29.85,South,190,0.0,0.0,84,0.00,,,0.00,weatherlink.com 1.10,2013-10-19 20:05:00,
2013-10-19 16:21:00,61.2,57.0,29.84,SSW,200,0.0,0.0,86,0.00,,,0.00,weatherlink.com 1.10,2013-10-19 20:21:00,
2013-10-19 16:35:00,61.4,57.0,29.84,SW,225,0.0,0.0,85,0.00,,,0.00,weatherlink.com 1.10,2013-10-19 20:35:00,
2013-10-19 16:50:00,61.4,57.0,29.83,South,188,0.0,0.0,84,0.00,,,0.00,weatherlink.com 1.10,2013-10-19 20:50:00,
2013-10-19 17:05:00,61.3,57.0,29.84,SW,219,0.0,0.0,84,0.00,,,0.00,weatherlink.com 1.10,2013-10-19 21:05:00,
2013-10-19 17:20:00,61.3,57.0,29.84,SW,233,0.0,0.0,84,0.00,,,0.00,weatherlink.com 1.10,2013-10-19 21:20:00,
2013-10-19 17:35:00,61.2,57.0,29.84,SW,235,0.0,0.0,85,0.00,,,0.00,weatherlink.com 1.10,2013-10-19 21:35:00,
2013-10-19 17:50:00,61.1,57.0,29.84,WSW,238,0.0,0.0,85,0.00,,,0.00,weatherlink.com 1.10,2013-10-19 21:50:00,
2013-10-19 18:05:00,60.9,57.0,29.84,WSW,258,0.0,0.0,86,0.00,,,0.00,weatherlink.com 1.10,2013-10-19 22:05:00,
2013-10-19 18:20:00,60.5,58.0,29.85,West,273,0.0,0.0,90,0.00,,,0.00,weatherlink.com 1.10,2013-10-19 22:20:00,
2013-10-19 18:35:00,59.9,56.0,29.85,West,273,0.0,0.0,88,0.00,,,0.00,weatherlink.com 1.10,2013-10-19 22:35:00,
2013-10-19 18:50:00,59.3,57.0,29.86,WNW,301,0.0,0.0,91,0.00,,,0.00,weatherlink.com 1.10,2013-10-19 22:50:00,
2013-10-19 19:05:00,58.2,56.0,29.87,WNW,301,0.0,0.0,92,0.00,,,0.00,weatherlink.com 1.10,2013-10-19 23:05:00,
2013-10-19 19:21:00,57.1,55.0,29.87,WNW,301,0.0,0.0,93,0.00,,,0.00,weatherlink.com 1.10,2013-10-19 23:21:00,
2013-10-19 19:36:00,56.4,55.0,29.87,WNW,301,0.0,0.0,94,0.00,,,0.00,weatherlink.com 1.10,2013-10-19 23:36:00,
2013-10-19 19:51:00,55.4,54.0,29.87,WNW,301,0.0,0.0,95,0.00,,,0.00,weatherlink.com 1.10,2013-10-19 23:51:00,
2013-10-19 20:06:00,54.6,53.0,29.88,WNW,301,0.0,0.0,94,0.00,,,0.00,weatherlink.com 1.10,2013-10-20 00:06:00,
2013-10-19 20:21:00,53.6,53.0,29.88,WNW,301,0.0,0.0,96,0.00,,,0.00,weatherlink.com 1.10,2013-10-20 00:21:00,
2013-10-19 20:36:00,52.7,51.0,29.88,WNW,301,0.0,0.0,95,0.00,,,0.00,weatherlink.com 1.10,2013-10-20 00:36:00,
2013-10-19 20:51:00,52.0,51.0,29.88,WNW,301,0.0,0.0,96,0.00,,,0.00,weatherlink.com 1.10,2013-10-20 00:51:00,
2013-10-19 21:06:00,51.6,51.0,29.89,WNW,301,0.0,0.0,96,0.00,,,0.00,weatherlink.com 1.10,2013-10-20 01:06:00,
2013-10-19 21:21:00,51.1,50.0,29.89,WNW,301,0.0,0.0,96,0.00,,,0.00,weatherlink.com 1.10,2013-10-20 01:21:00,
2013-10-19 21:36:00,50.5,49.0,29.89,WNW,301,0.0,0.0,96,0.00,,,0.00,weatherlink.com 1.10,2013-10-20 01:36:00,
2013-10-19 21:51:00,50.2,49.0,29.89,WNW,301,0.0,0.0,96,0.00,,,0.00,weatherlink.com 1.10,2013-10-20 01:51:00,
2013-10-19 22:06:00,50.3,50.0,29.89,WNW,301,0.0,0.0,97,0.00,,,0.00,weatherlink.com 1.10,2013-10-20 02:06:00,
2013-10-19 22:21:00,50.2,49.0,29.90,WNW,301,0.0,0.0,97,0.00,,,0.00,weatherlink.com 1.10,2013-10-20 02:21:00,
2013-10-19 22:36:00,50.6,50.0,29.90,ENE,59,0.0,0.0,97,0.00,,,0.00,weatherlink.com 1.10,2013-10-20 02:36:00,
2013-10-19 22:51:00,50.0,49.0,29.91,ENE,59,0.0,0.0,97,0.00,,,0.00,weatherlink.com 1.10,2013-10-20 02:51:00,
2013-10-19 23:06:00,49.3,49.0,29.91,ENE,59,0.0,0.0,97,0.00,,,0.00,weatherlink.com 1.10,2013-10-20 03:06:00,
2013-10-19 23:21:00,48.8,48.0,29.91,ENE,59,0.0,0.0,97,0.00,,,0.00,weatherlink.com 1.10,2013-10-20 03:21:00,
2013-10-19 23:36:00,48.2,47.0,29.91,ENE,59,0.0,0.0,97,0.00,,,0.00,weatherlink.com 1.10,2013-10-20 03:36:00,
2013-10-19 23:51:00,47.7,47.0,29.91,ENE,59,0.0,0.0,97,0.00,,,0.00,weatherlink.com 1.10,2013-10-20 03:51:00,